EW0706 Weather Reports


time (UTC)temp
C
wind
direction
speed
KPH
gust
KPH
rain 1hr
cm
rain 24hr
cm
rain mn
cm
humidity
%
barometer
mb
20200531064349 33 0.0 0.0 0.00 0.00 0.00 19 1010.2
20200531063244 33 0.0 0.0 0.00 0.00 0.00 20 1010.2
20200531062212 33 0.0 0.0 0.00 0.00 0.00 20 1010.2
20200531061211 33 0.0 0.0 0.00 0.00 0.00 20 1010.2
20200531060210 33 0.0 0.0 0.00 0.00 0.00 20 1010.5
20200531055137 33 0.0 0.0 0.00 0.00 0.00 20 1010.4
20200531054136 33 0.0 0.0 0.00 0.00 0.00 20 1010.8
20200531053135 33 0.0 0.0 0.00 0.00 0.00 22 1010.8
20200531052134 33 0.0 0.0 0.00 0.00 0.00 22 1010.8
20200531051102 33 0.0 0.0 0.00 0.00 0.00 22 1010.7
20200531050101 33 0.0 0.0 0.00 0.00 0.00 23 1010.7
20200531045100 33 0.0 0.0 0.00 0.00 0.00 23 1011.1
20200531044059 33 0.0 0.0 0.00 0.00 0.00 23 1011.0
20200531043027 33 0.0 0.0 0.00 0.00 0.00 24 1011.0
20200531042026 33 0.0 0.0 0.00 0.00 0.00 24 1011.0
20200531041025 33 0.0 0.0 0.00 0.00 0.00 23 1010.6
20200531035953 33 0.0 0.0 0.00 0.00 0.00 23 1010.6
20200531034848 33 0.0 0.0 0.00 0.00 0.00 23 1010.6
20200531033816 34 0.0 0.0 0.00 0.00 0.00 23 1010.5
20200531032815 35 0.0 0.0 0.00 0.00 0.00 23 1010.2
20200531031815 35 0.0 0.0 0.00 0.00 0.00 22 1010.2
20200531030742 35 0.0 0.0 0.00 0.00 0.00 21 1009.9
20200531025741 36 0.0 0.0 0.00 0.00 0.00 20 1009.9
20200531024636 37 0.0 0.0 0.00 0.00 0.00 19 1009.6
20200531023604 38 0.0 0.0 0.00 0.00 0.00 17 1009.4
20200531022459 40 0.0 0.0 0.00 0.00 0.00 14 1009.4
20200531021426 40 0.0 0.0 0.00 0.00 0.00 12 1008.4
20200531020425 41 0.0 0.0 0.00 0.00 0.00 12 1007.7
20200531015424 41 0.0 0.0 0.00 0.00 0.00 12 1007.4
20200531014352 41 0.0 0.0 0.00 0.00 0.00 12 1007.3
20200531013319 42 0.0 0.0 0.00 0.00 0.00 12 1007.3
20200531012318 42 0.0 0.0 0.00 0.00 0.00 12 1007.0
20200531011213 42 0.0 0.0 0.00 0.00 0.00 12 1007.0
20200531010212 42 0.0 0.0 0.00 0.00 0.00 12 1007.0
20200531005108 42 0.0 0.0 0.00 0.00 0.00 11 1007.0
20200531004107 43 0.0 0.0 0.00 0.00 0.00 11 1006.7
20200531003106 43 0.0 0.0 0.00 0.00 0.00 11 1006.7
20200531002034 43 0.0 0.0 0.00 0.00 0.00 11 1007.0
20200531001001 43 0.0 0.0 0.00 0.00 0.00 11 1007.1
20200531000000 43 0.0 0.0 0.00 0.00 0.00 11 1007.1
20200530234856 43 0.0 0.0 0.00 0.00 0.00 11 1007.1
20200530233855 43 0.0 0.0 0.00 0.00 0.00 11 1007.4
20200530232854 43 0.0 0.0 0.00 0.00 0.00 11 1007.4
20200530231822 43 0.0 0.0 0.00 0.00 0.00 11 1007.4
20200530230749 43 0.0 0.0 0.00 0.00 0.00 11 1007.8
20200530225748 44 0.0 0.0 0.00 0.00 0.00 10 1007.8
20200530224644 44 0.0 0.0 0.00 0.00 0.00 10 1007.8
20200530223644 44 0.0 0.0 0.00 0.00 0.00 10 1008.2
20200530222643 44 0.0 0.0 0.00 0.00 0.00 10 1008.2
20200530221642 43 0.0 0.0 0.00 0.00 0.00 10 1008.5
20200530220609 43 0.0 0.0 0.00 0.00 0.00 10 1008.6
20200530215608 43 0.0 0.0 0.00 0.00 0.00 10 1008.9
20200530214504 43 0.0 0.0 0.00 0.00 0.00 10 1008.9
20200530213503 43 0.0 0.0 0.00 0.00 0.00 10 1009.2
20200530212359 43 0.0 0.0 0.00 0.00 0.00 10 1009.2
20200530211358 43 0.0 0.0 0.00 0.00 0.00 10 1009.6
20200530210358 43 0.0 0.0 0.00 0.00 0.00 10 1009.6
20200530205357 43 0.0 0.0 0.00 0.00 0.00 10 1009.9
20200530204356 43 0.0 0.0 0.00 0.00 0.00 11 1010.0
20200530203355 43 0.0 0.0 0.00 0.00 0.00 11 1010.0
20200530202355 42 0.0 0.0 0.00 0.00 0.00 11 1010.3
20200530201354 43 0.0 0.0 0.00 0.00 0.00 11 1010.7
20200530200321 43 0.0 0.0 0.00 0.00 0.00 11 1010.7
20200530195321 42 0.0 0.0 0.00 0.00 0.00 11 1011.0
20200530194320 42 0.0 0.0 0.00 0.00 0.00 12 1010.9
20200530193319 42 0.0 0.0 0.00 0.00 0.00 11 1011.3
20200530192318 41 0.0 0.0 0.00 0.00 0.00 12 1011.6
20200530191317 41 0.0 0.0 0.00 0.00 0.00 12 1011.6
20200530190244 41 0.0 0.0 0.00 0.00 0.00 12 1012.0
20200530185212 41 0.0 0.0 0.00 0.00 0.00 12 1012.0
20200530184211 41 0.0 0.0 0.00 0.00 0.00 12 1012.0
20200530183210 40 0.0 0.0 0.00 0.00 0.00 12 1012.0
20200530182138 40 0.0 0.0 0.00 0.00 0.00 13 1012.3
20200530181137 40 0.0 0.0 0.00 0.00 0.00 12 1012.3
20200530180136 40 0.0 0.0 0.00 0.00 0.00 13 1012.6
20200530175104 39 0.0 0.0 0.00 0.00 0.00 13 1012.6
20200530174031 39 0.0 0.0 0.00 0.00 0.00 13 1012.7
20200530173030 39 0.0 0.0 0.00 0.00 0.00 13 1012.7
20200530171925 38 0.0 0.0 0.00 0.00 0.00 14 1013.0
20200530170925 38 0.0 0.0 0.00 0.00 0.00 14 1013.0
20200530165924 38 0.0 0.0 0.00 0.00 0.00 14 1013.0
20200530164851 38 0.0 0.0 0.00 0.00 0.00 14 1013.0
20200530163850 37 0.0 0.0 0.00 0.00 0.00 14 1013.0
20200530162746 37 0.0 0.0 0.00 0.00 0.00 15 1013.0
20200530161745 37 0.0 0.0 0.00 0.00 0.00 15 1013.0
20200530160744 36 0.0 0.0 0.00 0.00 0.00 15 1013.3
20200530155640 36 0.0 0.0 0.00 0.00 0.00 15 1013.2
20200530154639 35 0.0 0.0 0.00 0.00 0.00 17 1013.1
20200530153638 34 0.0 0.0 0.00 0.00 0.00 17 1013.5
20200530152606 33 0.0 0.0 0.00 0.00 0.00 17 1013.4
20200530151533 33 0.0 0.0 0.00 0.00 0.00 17 1013.5
20200530150533 33 0.0 0.0 0.00 0.00 0.00 18 1013.5
20200530145428 33 0.0 0.0 0.00 0.00 0.00 17 1013.4
20200530144427 33 0.0 0.0 0.00 0.00 0.00 17 1013.1
20200530143427 32 0.0 0.0 0.00 0.00 0.00 17 1013.2
20200530142426 32 0.0 0.0 0.00 0.00 0.00 17 1013.2
20200530141425 32 0.0 0.0 0.00 0.00 0.00 17 1013.2
20200530140424 31 0.0 0.0 0.00 0.00 0.00 18 1013.2
20200530135423 31 0.0 0.0 0.00 0.00 0.00 19 1012.8
20200530134422 30 0.0 0.0 0.00 0.00 0.00 19 1012.8
20200530133421 30 0.0 0.0 0.00 0.00 0.00 20 1012.8
20200530132421 30 0.0 0.0 0.00 0.00 0.00 20 1012.8
20200530131348 29 0.0 0.0 0.00 0.00 0.00 20 1012.8
20200530130347 28 0.0 0.0 0.00 0.00 0.00 19 1012.8
20200530125346 28 0.0 0.0 0.00 0.00 0.00 20 1012.8
20200530124346 28 0.0 0.0 0.00 0.00 0.00 20 1012.8
20200530123345 28 0.0 0.0 0.00 0.00 0.00 19 1012.5
20200530122344 28 0.0 0.0 0.00 0.00 0.00 19 1012.5
20200530121343 29 0.0 0.0 0.00 0.00 0.00 19 1012.5
20200530120343 29 0.0 0.0 0.00 0.00 0.00 19 1012.2
20200530115310 29 0.0 0.0 0.00 0.00 0.00 19 1012.2
20200530114309 29 0.0 0.0 0.00 0.00 0.00 19 1012.2
20200530113308 29 0.0 0.0 0.00 0.00 0.00 19 1012.2
20200530112308 29 0.0 0.0 0.00 0.00 0.00 19 1012.2
20200530111235 29 0.0 0.0 0.00 0.00 0.00 18 1012.2
20200530110234 30 0.0 0.0 0.00 0.00 0.00 18 1012.2
20200530105202 30 0.0 0.0 0.00 0.00 0.00 17 1012.3
20200530104202 30 0.0 0.0 0.00 0.00 0.00 17 1012.3
20200530103200 31 0.0 0.0 0.00 0.00 0.00 17 1012.3
20200530102159 31 0.0 0.0 0.00 0.00 0.00 17 1012.6
20200530101126 31 0.0 0.0 0.00 0.00 0.00 17 1012.7
20200530100128 31 0.0 0.0 0.00 0.00 0.00 17 1012.3
20200530095125 31 0.0 0.0 0.00 0.00 0.00 16 1012.3
20200530094053 32 0.0 0.0 0.00 0.00 0.00 16 1012.3
20200530093052 32 0.0 0.0 0.00 0.00 0.00 16 1012.0
20200530092051 32 0.0 0.0 0.00 0.00 0.00 16 1012.0
20200530091050 32 0.0 0.0 0.00 0.00 0.00 16 1011.9
20200530090049 32 0.0 0.0 0.00 0.00 0.00 16 1012.0
20200530085049 32 0.0 0.0 0.00 0.00 0.00 16 1011.9
20200530084048 32 0.0 0.0 0.00 0.00 0.00 15 1011.9
20200530083047 32 0.0 0.0 0.00 0.00 0.00 14 1012.0
20200530082046 33 0.0 0.0 0.00 0.00 0.00 14 1012.0
20200530081045 33 0.0 0.0 0.00 0.00 0.00 14 1012.0
20200530080044 33 0.0 0.0 0.00 0.00 0.00 14 1011.9
20200530075043 33 0.0 0.0 0.00 0.00 0.00 14 1011.9
20200530074043 33 0.0 0.0 0.00 0.00 0.00 15 1011.9
20200530073042 33 0.0 0.0 0.00 0.00 0.00 14 1012.2
20200530072042 33 0.0 0.0 0.00 0.00 0.00 14 1012.3
20200530071040 34 0.0 0.0 0.00 0.00 0.00 14 1012.3
20200530070040 34 0.0 0.0 0.00 0.00 0.00 14 1012.3
20200530065039 35 0.0 0.0 0.00 0.00 0.00 14 1012.3